Regional Weather Roundup
Issued by NWS San Diego, CA

Home | Current Version | Previous Version | Text Only | Print | Product List | Glossary On
Versions: 1 2 3 4 5 6 7 8 9 10 11 12 13 14 15 16 17 18 19 20 21 22 23 24 25 26 27
000
ASUS46 KSGX 281811
RWRSGX

SAN DIEGO HOURLY WEATHER ROUNDUP
NATIONAL WEATHER SERVICE SAN DIEGO CA
1100 AM PDT THU JUL 28 2016

NOTE: "FAIR" INDICATES FEW OR NO CLOUDS BELOW 12,000 FEET WITH NO
SIGNIFICANT WEATHER AND/OR OBSTRUCTIONS TO VISIBILITY.

CAZ042-043-060-061-PZZ750-775-281900-

GREATER SAN DIEGO AREA

CITY           SKY/WX    TMP DP  RH WIND       PRES   REMARKS
LINDBERGH FLD  MOSUNNY   77  66  68 W7        29.93R
POINT LOMA       N/A     76  67  74 W14         N/A
NATIONAL CITY    N/A     79  70  74 SW6       29.93R
CHULA VISTA      N/A     80  72  75 W6        29.84S
IMPERIAL BEACH MOSUNNY   80  67  64 W10       29.92S
BROWN FIELD    SUNNY     85  64  49 W7        29.92S
MIRAMAR MCAS   MOSUNNY   88  63  43 W8        29.92S
MONTGOMERY FLD SUNNY     83  65  54 SW6       29.92S

$$

NORTH SAN DIEGO COUNTY

CITY           SKY/WX    TMP DP  RH WIND       PRES   REMARKS
CAMP PENDLETON MOSUNNY   83  65  54 VRB7      29.91S
OCEANSIDE AP   SUNNY     80  66  62 W9        29.90F
OCEANSIDE HBR    N/A     75  70  85 W3        29.94S
VISTA            N/A     82  67  60 SW2       29.89S
CARLSBAD       SUNNY     77  68  73 W6        29.91S
DEL MAR          N/A     78  71  80 CALM      29.94S
LA JOLLA SCRIP   N/A     73  70  89 W3        29.91S
FALLBROOK        N/A     86  63  44 W3        29.89S
ESCONDIDO        N/A     91  63  39 CALM      29.91F
SAN MARCOS       N/A     82  66  57 SW1       29.93F
POWAY            N/A     90  62  38 SW7       29.90F

$$

EAST SAN DIEGO COUNTY

CITY           SKY/WX    TMP DP  RH WIND       PRES   REMARKS
RAMONA         SUNNY     89  54  30 VRB7      29.95S
SANTEE LAKES     N/A     88  63  42 SW3       29.88S
LA MESA          N/A     84  64  50 CALM      29.83F
JAMUL            N/A     90  59  35 CALM      29.89S
DESCANSO N       N/A     89  53  28 SW3       29.81S
MT. LAGUNA OBS   N/A     85  46  25 E7        29.80S
CAMPO            N/A     92  47  21 S15       29.96S

$$

ORANGE COUNTY AND THE LOS ANGELES BASIN

CITY           SKY/WX    TMP DP  RH WIND       PRES   REMARKS
JOHN WAYNE AP  MOSUNNY   78  65  63 SW9       29.91R
LAGUNA BEACH     N/A     79  70  74 SE3       29.87S
LAKE FOREST FR   N/A     85  54  34 CALM      29.79R
HUNTINGTON BCH   N/A     78  70  77 W7        29.94R
FULLERTON      SUNNY     85  61  44 SW5       29.90S
LONG BEACH     SUNNY     78  65  63 SE8       29.91R
L.A. AP        SUNNY     77  65  66 W12       29.92R

$$

THE INLAND EMPIRE

CITY           SKY/WX    TMP DP  RH WIND       PRES   REMARKS
CORONA         SUNNY     88  60  38 W8        29.91S
CHINO          SUNNY     91  40  16 VRB3      29.93R
ONTARIO        MOSUNNY   89  42  19 VRB5      29.93R
SAN BERNARDINO MOSUNNY   93  41  16 W3        29.93S
RIVERSIDE AP   SUNNY     89  44  20 VRB5      29.92S
MORENO VALLEY    N/A     92  51  24 SE2       28.06S
HORSETHIEF CYN   N/A     93  42  16 E12       29.90S
PERRIS           N/A     92  48  22 SW2       29.94S
HEMET EAST       N/A     87  44  21 W1        29.78R
FRENCH VALLEY  FAIR      90  50  25 SW6       29.95S
TEMECULA         N/A     89  54  30 SW7       29.89S

$$

SAN BERNARDINO AND RIVERSIDE COUNTY MOUNTAINS

CITY           SKY/WX    TMP DP  RH WIND       PRES   REMARKS
BIG BEAR AP    MOSUNNY   84  43  23 E10       30.32R
PINE COVE        N/A     86  47  25 SW1       29.84R

$$

SOUTHERN DESERT INCLUDING THE COACHELLA VALLEY

CITY           SKY/WX    TMP DP  RH WIND       PRES   REMARKS
PALM SPRINGS   SUNNY    104  55  19 E14       29.84R HX 102
THOUSAND PALMS   N/A    101  66  31 SE10      29.79R HX 105
PALM DESERT      N/A    104  67  30 E5          N/A  HX 109
THERMAL        SUNNY    102  64  28 SE7       29.76F HX 105
IMPERIAL AP    SUNNY    106  66  27 SE8       29.76S HX 111
EL CENTRO NAS  MOSUNNY  105  61  23 SE6       29.78S HX 106
YUMA AZ        PTSUNNY  102  64  28 S18       29.81S HX 105
MEXICALI       MOSUNNY  100  66  32 SE10      29.80R HX 104

$$

UPPER DESERT

CITY           SKY/WX    TMP DP  RH WIND       PRES   REMARKS
VICTORVILLE AP MOSUNNY   99  39  12 SW5       29.98S
HESPERIA         N/A    100  48  17 N2        29.90S HX  96
PALMDALE       SUNNY     98  44  15 SW5       29.96S
LANCASTER      SUNNY    101  41  12 MISG      29.94S HX  96
DAGGETT        SUNNY    102  43  13 NW14      29.90S HX  97
29 PALMS N     MOSUNNY  105  36   9 SE7       29.97S HX  99
NEEDLES        MOSUNNY  111  54  15 SW15G23   29.81F HX 109

$$

REGIONAL REPORTS

CITY           SKY/WX    TMP DP  RH WIND       PRES   REMARKS
SANTA BARBARA  SUNNY     70  63  78 S7        29.92R
SANDBERG       SUNNY     93  34  12 N15       30.15S
LAS VEGAS NV   PTSUNNY  104  43  12 SW3       29.86S HX  99
PHOENIX AZ     MOSUNNY  101  59  24 S5        29.87F HX 101
TIJUANA        SUNNY     82  59  44 NW8       29.94S
ENSENADA NW      N/A     75  32  21 W14       29.89S

$$

OFFSHORE ISLANDS

CITY           SKY/WX    TMP DP  RH WIND       PRES   REMARKS
CATALINA ARPT  SUNNY     77  58  51 SW7       29.98R
SAN NICOLAS IS MOSUNNY   77  55  46 E7        29.93R

$$

MARINE AND OFFSHORE BUOY REPORTS

STATION/POSITION SKY/WX   TEMP    WIND        PRES    SWELL
                          AIR SEA DIR/SP/G            HT/PER/DIR
                          (F)     (DEG/KT/KT) (MB)    (FT/S/D)
TANNER BANKS               61 65  280/ 12/ 12 1013.9S   5/310/10
S CLEMENTE BASIN           67 70  290/  8/ 10 1013.1F   3/190/ 8
SAN NICOLAS IS.               64                N/A     2/290/11
SO. S. ROSA ISLA           62 67  300/ 12/ 16 1013.5R   5/310/10
W. S. BARBARA CH           59 66  310/ 14/ 17 1013.6R   5/310/10
M. S. BARBARA CH                  250/ 10/ 12 1013.5R
S. MONICA BASIN            69 70  170/  6/  8 1012.5S
S PEDRO CHANNEL               72                N/A     2/170/12
OCEANSIDE OFFSHR              77                N/A     2/200/11
TORREY PINES OTR              76                N/A     2/190/13
LA JOLLA 1                 75 69  300/  3/  5 1013.1F
SAN DIEGO BAY                 78              1013.2F
POINT LOMA SOUTH              73                N/A     2/190/13

$$





USA.gov is the U.S. government's official web portal to all federal, state and local government web resources and services.